User: anonymous   Login
Location: Unspecified
(0.0000°N, 0.0000°E)
Time: 07:33:53
(UTC+00:00)
Language:

FALCON 9 R/B - Orbit

View from above orbital plane
View from above orbital plane
View from above satellite
View from above satellite

Ground track
Ground track

The orbit data is extracted from the following two-line orbital elements,

1 41590U 16038C   23038.13776060  .00000104  00000-0  64590-3 0  9995
2 41590  22.1465 237.9646 8189536 190.1471 123.7915  1.18384640 28688
Epoch (UTC): 07 February 2023 03:18:22
Eccentricity: 0.8189536
inclination: 22.1465°
perigee height: 455 km
apogee height: 62279 km
right ascension of ascending node: 237.9646°
argument of perigee: 190.1471°
revolutions per day: 1.18384640
mean anomaly at epoch: 123.7915°
orbit number at epoch: 2868

The dashed part of the orbit path shows where the satellite is in the earth's shadow,  

DLR